{"data":{"norad_id":67516,"intl_designator":"2026-012Z","name":"STARLINK-36537","alt_names":[],"object_type":"PAYLOAD","status":"ACTIVE","operator":null,"country":"US","launch_date":"2026-01-18","launch_site_code":"AFETR","launch_vehicle":null,"mission":null,"orbit_class":"UNKNOWN","rcs_meters":null,"size_class":null,"mass_kg":null,"dimensions":null,"purposes":["comms"],"wikipedia_slug":null,"has_3d_model":false,"image_url":null,"decayed_at":null,"tle_current":{"epoch":"2026-05-24T23:55:30.426816Z","epoch_age_seconds":79326,"freshness":"FRESH","line1":"1 67516U 26012Z   26144.99687994  .00015280  00000+0  56355-3 0  9996","line2":"2 67516  43.0032 243.3114 0001536 267.7436  92.3240 15.27585344 19438","mean_motion":15.27585344,"eccentricity":0.0001536,"inclination_deg":43.0032,"raan_deg":243.3114,"arg_perigee_deg":267.7436,"mean_anomaly_deg":92.324,"bstar":0.00056355,"rev_number":1943,"period_min":94.266418937311,"perigee_km":481.97921850134,"apogee_km":484.08696995428,"semimajor_km":6861.1700942278,"source":"CELESTRAK","updated_at":"2026-05-25T13:38:21.602178Z"}}}